Skip Page Navigation
NASA JPL Caltech
NASA Logo - Jet Propulsion Laboratory + View the NASA Portal
+ Center for Near-Earth Object Studies
JPL Home Earth Solar System Stars & Galaxies Technology
JPL Solar System Dynamics
BODIES ORBITS EPHEMERIDES TOOLS PHYSICAL DATA DISCOVERY FAQ SITE MAP
JPL Small-Body Database Browser
Search: [ help ]  
192336 (1995 KK3)
Classification: Main-belt Asteroid          SPK-ID: 2192336
Ephemeris | Orbit Diagram | Orbital Elements | Mission Design | Physical Parameters | Discovery Circumstances | Close-Approach Data ]

[ show orbit diagram ]
Orbital Elements at Epoch 2459396.5 (2021-Jul-01.0) TDB
Reference: JPL 19 (heliocentric ecliptic J2000)
 Element Value Uncertainty (1-sigma)   Units 
e .04585348826099316 3.9438e-08  
a 3.121703176810152 2.6313e-08 au
q 2.978562196837983 1.2173e-07 au
i 3.612822193248459 4.7254e-06 deg
node 57.1559727137003 7.6907e-05 deg
peri 245.9907219190539 9.788e-05 deg
M 195.0875044258508 6.2476e-05 deg
tp 2460319.362288319452
(2024-Jan-09.86228832)
0.00035139 TDB
period 2014.586115129298
5.52
2.5472e-05
6.974e-08
d
yr
n .1786967542843881 2.2594e-09 deg/d
Q 3.264844156782321 2.752e-08 au
  Orbit Determination Parameters
   # obs. used (total)      407  
   data-arc span      10817 days (29.62 yr)  
   first obs. used      1991-09-30  
   last obs. used      2021-05-12  
   planetary ephem.      DE441  
   SB-pert. ephem.      SB441-N16  
   condition code      0  
   norm. resid. RMS      .56077  
   source      ORB  
   producer      Otto Matic  
   solution date      2021-Jul-09 02:54:48  

Additional Information
 Earth MOID = 1.96511 au 
 Jupiter MOID = 1.84193 au 
 T_jup = 3.211 
[ show covariance matrix ]

Ephemeris | Orbit Diagram | Orbital Elements | Mission Design | Physical Parameters | Discovery Circumstances | Close-Approach Data ]

Physical Parameter Table
Parameter Symbol Value Units Sigma Reference Notes
absolute magnitude H 15.35   n/a MPCxxxxx  
diameter diameter 5.762 km 0.366 urn:nasa:pds:neowise_diameters_albedos::2.0[mainbelt] (http://adsabs.harvard.edu/abs/2011ApJ...741...68M)  
geometric albedo albedo 0.049   0.012 urn:nasa:pds:neowise_diameters_albedos::2.0[mainbelt] (http://adsabs.harvard.edu/abs/2011ApJ...741...68M)  

192336 (1995 KK3)          Discovered 1995-May-25 by Spacewatch at Kitt Peak
Reference: 20081113/Numbers.arcLast Updated: 2008-11-17

[ show close-approach data ]
Alternate Designations
 1995 KK3 = 2005 CP52 
Ephemeris | Orbit Diagram | Orbital Elements | Mission Design | Physical Parameters | Discovery Circumstances | Close-Approach Data ]
ABOUT SSD CREDITS/AWARDS PRIVACY/COPYRIGHT GLOSSARY LINKS
FirstGov 2021-Jul-24 18:46 UT
(server date/time)  
NASA Home Page
Site Manager:   Ryan S. Park
Webmaster  Alan B. Chamberlin